Regional Weather Roundup
Issued by NWS

Home | Current Version | Previous Version | Graphics & Text | Print | Product List | Glossary On
Versions: 1 2 3 4 5 6 7 8 9 10 11 12 13 14 15 16 17 18 19 20 21 22 23 24 25 26 27 28 29 30 31 32 33 34 35 36 37 38 39 40 41 42 43 44 45 46 47 48 49 50
020
ASUS44 KJAN 301810
RWRMS

MISSISSIPPI HOURLY WEATHER ROUNDUP
NATIONAL WEATHER SERVICE JACKSON MS
100 PM CDT SAT AUG 30 2014

NOTE: "FAIR: INDICATES FEW OR NO CLOUDS BELOW 12,000 FEET WITH NO
SIGNIFICANT WEATHER AND/OR OBSTRUCTIONS TO VISIBILITY.

MSZ001>002-007>008-010>013-018>021-025>028-034>036-301900-
NORTHWEST MISSISSIPPI

CITY           SKY/WX    TMP DP  RH WIND       PRES   REMARKS
CLARKSDALE     FAIR      79  77  94 CALM      30.05S
CLEVELAND      DRIZZLE   77  76  96 S6        30.05S
GREENWOOD      LGT RAIN  77  75  93 W6        30.05R FOG
6HR MIN TEMP:  75; 6HR MAX TEMP:  84; 6HR PCP:  0.33;

GREENVILLE     HVY RAIN  74  72  93 SW5       30.05R FOG
6HR MIN TEMP:  74; 6HR MAX TEMP:  79; 6HR PCP:  0.55;

GRENADA        MOCLDY    82  72  69 E6        30.04F
OLIVE BRANCH   CLOUDY    75  75 100 CALM      30.06S FOG
OXFORD         FAIR      81  70  69 CALM      30.07F
TUNICA         RAIN      77  72  83 CALM      30.05F
$$

MSZ003>006-009-014>017-022>024-029>033-037>039-301900-
NORTHEAST MISSISSIPPI

CITY           SKY/WX    TMP DP  RH WIND       PRES   REMARKS
BELMONT        FAIR      84  72  66 SW6       30.07F
COLUMBUS AFB   PTSUNNY   88  70  55 VRB1      30.04F HX  92
6HR MIN TEMP:  74; 6HR MAX TEMP:  89;

CORINTH        MOCLDY    81  72  74 VRB3      30.06F
GOLDN TRIANGLE SHOWER    90  72  55 SE5       30.04F HX  96
STARKVILLE     MOCLDY    86  72  62 CALM      30.04F THUNDER HX  92
TUPELO         CLOUDY    84  71  65 SW3       30.05F
6HR MIN TEMP:  75; 6HR MAX TEMP:  84; 6HR PCP:  0.01;

$$

MSZ040-058-301900-
CENTRAL MISSISSIPPI

CITY           SKY/WX    TMP DP  RH WIND       PRES   REMARKS
JACKSON INTL   CLOUDY    85  75  72 S5        30.03S HX  93
6HR MIN TEMP:  75; 6HR MAX TEMP:  85;

JACKSON HAWKNS CLOUDY    84  74  71 S7        30.03F HX  91
6HR MIN TEMP:  76; 6HR MAX TEMP:  84;

MERIDIAN KEY   PTSUNNY   90  70  51 S14G20    30.03F HX  95
6HR MIN TEMP:  74; 6HR MAX TEMP:  92;

MERIDIAN NAS   PTSUNNY   91  71  51 VRB5      30.03F HX  97
6HR MIN TEMP:  75; 6HR MAX TEMP:  92;

RAYMOND        FAIR      82  77  83 SE5       30.03S HX  91
VICKSBURG      RAIN      79  76  90 E6        30.01F
6HR MIN TEMP:  76; 6HR MAX TEMP:  80; 6HR PCP:  0.09;

$$

MSZ059>079-301900-
SOUTH MISSISSIPPI

CITY           SKY/WX    TMP DP  RH WIND       PRES   REMARKS
BROOKHAVEN     FAIR      75  72  88 SE18G33   30.09R FOG
COLUMBIA       RAIN      75  73  94 SW14G31   30.07R VSB 3/4
HATTIESBURG    LGT RAIN  85  77  77 S6        30.03F HX  95
6HR MIN TEMP:  74; 6HR MAX TEMP:  92; 6HR PCP:  0.07;

MCCOMB         HVY RAIN  73  71  93 S13G23    30.09S FOG
6HR MIN TEMP:  73; 6HR MAX TEMP:  84; 6HR PCP:  0.33;

NATCHEZ        CLOUDY    73  72  94 S13       30.03F
6HR MIN TEMP:  73; 6HR MAX TEMP:  77; 6HR PCP:  0.51;

PINE BELT      PTSUNNY  N/A N/A N/A S15       30.05S
$$

MSZ080>082-301900-
COASTAL MISSISSIPPI

CITY           SKY/WX    TMP DP  RH WIND       PRES   REMARKS
BAY ST LOUIS   TSTM     N/A N/A N/A MISG      30.10R VSB 1
BILOXI         PTSUNNY   88  76  68 S15       30.06S HX  99
6HR MIN TEMP:  83; 6HR MAX TEMP:  91;

PASCAGOULA     MOSUNNY   90  75  61 SE17G24   30.05F HX 100
6HR MIN TEMP:  75; 6HR MAX TEMP:  90;

GULFPORT       CLOUDY    87  77  72 SE17G23   30.04F HX  99
6HR MIN TEMP:  81; 6HR MAX TEMP:  89;

$$



USA.gov is the U.S. government's official web portal to all federal, state and local government web resources and services.